STARLINK-35062

Last updated on Sun Oct 19 2025 00:02:05 GMT+0000 (Coordinated Universal Time)

1 65643U 25210X 25291.30342239 .00047040 00000+0 11779-2 0 9990 2 65643 53.1595 250.3934 0001313 84.5995 275.5160 15.39640611 5904
UTC large
Height (km)
Speed (km/s)
/
Latitude / Longitude
Inclination (degrees)
Orbital Period (minutes)
Azimuth
Elevation
Range (km)
Doppler Factor

Next 0 passes for location: London (51.5072 / 0.1276)

Sorry there are no passes over London.
STARLINK-35062